Location: *
(49.0044°N, 9.5056°E)
Time: 04:57:14
(UTC+00:00)

CZ-2D R/B - Pass Details

Date: 22 September 2019
Orbit: 523 x 538 km, 97.4° (Epoch: 15 October)

Event Time Altitude Azimuth Distance (km) Brightness Sun altitude
Rises 18:07:32 0° 167° (SSE) 2,642 6.6 -8.5°
Reaches altitude 10° 18:09:37 10° 168° (SSE) 1,758 5.7 -8.8°
Maximum altitude 18:13:25 83° 256° (WSW) 535 3.3 -9.4°
Drops below altitude 10° 18:17:15 10° 346° (NNW) 1,775 6.3 -10.0°
Sets 18:19:23 0° 347° (NNW) 2,671 7.2 -10.4°
